Terminal Aerodrome Forecast
Issued by NWS Green Bay, WI

Home | Current Version | Previous Version | Text Only | Print | Product List | Glossary Off
Versions: 1 2 3 4 5 6 7 8 9 10 11 12 13 14 15 16 17 18 19 20 21 22 23 24 25 26 27 28 29 30 31 32 33 34 35 36 37 38 39 40 41 42 43 44

000
FTUS43 KGRB 250540
TAFGRB
TAF
KGRB 250540Z 2506/2606 34012G20KT 4SM -FZDZSN BR OVC010
     FM250700 35014G24KT 2SM -SN BR OVC012
     FM251100 32017G25KT P6SM -SN SCT015 OVC025
      TEMPO 2511/2515 3SM -SN BKN015
     FM251500 30017G27KT P6SM SCT015 OVC035
     FM260000 26009KT P6SM FEW050=

USA.gov is the U.S. government's official web portal to all federal, state and local government web resources and services.